| time (UTC) | temp F | wind direction | speed MPH | gust MPH | rain 1hr in | rain 24hr in | rain mn in | humidity % | barometer mb |
| 20260901214047 | 53 | 235 | 1.0 | 7.0 | 0.04 | 0.09 | 0.09 | 75 | 1009.3 |
| 20260901213547 | 53 | 219 | 0.0 | 7.0 | 0.04 | 0.09 | 0.09 | 75 | 1009.6 |
| 20260901213047 | 53 | 225 | 2.0 | 5.0 | 0.03 | 0.08 | 0.08 | 74 | 1008.8 |
| 20260901212547 | 53 | 222 | 2.0 | 7.0 | 0.03 | 0.08 | 0.08 | 76 | 1009.3 |
| 20260901212047 | 53 | 247 | 0.0 | 7.0 | 0.03 | 0.08 | 0.08 | 75 | 1009.6 |
| 20260901211547 | 53 | 256 | 3.0 | 7.0 | 0.03 | 0.08 | 0.08 | 75 | 1008.8 |
| 20260901211047 | 53 | 231 | 1.0 | 7.0 | 0.02 | 0.08 | 0.08 | 75 | 1010.4 |
| 20260901210547 | 53 | 260 | 0.0 | 7.0 | 0.02 | 0.07 | 0.07 | 75 | 1009.3 |
| 20260901210047 | 53 | 282 | 3.0 | 7.0 | 0.00 | 0.06 | 0.06 | 75 | 1009.4 |
| 20260901205547 | 53 | 204 | 1.0 | 4.0 | 0.00 | 0.05 | 0.05 | 75 | 1009.8 |
| 20260901205047 | 53 | 194 | 1.0 | 5.0 | 0.00 | 0.05 | 0.05 | 74 | 1009.3 |
| 20260901204547 | 54 | 242 | 0.0 | 5.0 | 0.00 | 0.05 | 0.05 | 74 | 1008.6 |
| 20260901204047 | 54 | 207 | 1.0 | 5.0 | 0.00 | 0.05 | 0.05 | 74 | 1009.1 |
| 20260901203547 | 54 | 242 | 4.0 | 5.0 | 0.00 | 0.05 | 0.05 | 74 | 1008.8 |
| 20260901203047 | 54 | 267 | 0.0 | 3.0 | 0.00 | 0.05 | 0.05 | 74 | 1009.3 |
| 20260901202547 | 54 | 0 | 0.0 | 3.0 | 0.00 | 0.05 | 0.05 | 74 | 1008.9 |
| 20260901202047 | 54 | 231 | 0.0 | 3.0 | 0.00 | 0.05 | 0.05 | 73 | 1009.7 |
| 20260901201547 | 54 | 0 | 0.0 | 5.0 | 0.00 | 0.05 | 0.05 | 73 | 1010.1 |
| 20260901201046 | 54 | 0 | 0.0 | 5.0 | 0.00 | 0.05 | 0.05 | 73 | 1010.7 |
| 20260901200546 | 54 | 217 | 0.0 | 5.0 | 0.00 | 0.05 | 0.05 | 73 | 1009.9 |
| 20260901200046 | 54 | 0 | 0.0 | 2.0 | 0.00 | 0.05 | 0.05 | 74 | 1010.1 |
| 20260901195546 | 54 | 0 | 0.0 | 2.0 | 0.00 | 0.05 | 0.05 | 74 | 1009.6 |
| 20260901195046 | 54 | 226 | 0.0 | 2.0 | 0.00 | 0.05 | 0.05 | 73 | 1009.7 |
| 20260901194546 | 54 | 0 | 0.0 | 6.0 | 0.00 | 0.05 | 0.05 | 74 | 1008.9 |
| 20260901194046 | 54 | 226 | 0.0 | 6.0 | 0.00 | 0.05 | 0.05 | 74 | 1009.9 |
| 20260901193546 | 54 | 239 | 0.0 | 6.0 | 0.00 | 0.05 | 0.05 | 74 | 1009.1 |
| 20260901193046 | 54 | 238 | 1.0 | 8.0 | 0.01 | 0.05 | 0.05 | 73 | 1009.6 |
| 20260901192546 | 54 | 197 | 0.0 | 8.0 | 0.01 | 0.05 | 0.05 | 74 | 1009.4 |
| 20260901192046 | 54 | 229 | 1.0 | 8.0 | 0.01 | 0.05 | 0.05 | 72 | 1009.6 |
| 20260901191546 | 54 | 0 | 0.0 | 0.0 | 0.01 | 0.05 | 0.05 | 73 | 1009.4 |
| 20260901191046 | 54 | 222 | 0.0 | 5.0 | 0.01 | 0.05 | 0.05 | 68 | 1009.8 |
| 20260901190546 | 54 | 242 | 0.0 | 5.0 | 0.01 | 0.05 | 0.05 | 74 | 1008.9 |
| 20260901190047 | 54 | 233 | 0.0 | 5.0 | 0.01 | 0.05 | 0.05 | 74 | 1010.6 |
| 20260901185546 | 54 | 228 | 1.0 | 3.0 | 0.01 | 0.05 | 0.05 | 73 | 1009.9 |
| 20260901185046 | 54 | 215 | 0.0 | 5.0 | 0.01 | 0.05 | 0.05 | 73 | 1009.8 |
| 20260901184546 | 54 | 217 | 0.0 | 5.0 | 0.01 | 0.05 | 0.05 | 73 | 1009.2 |
| 20260901184046 | 54 | 284 | 0.0 | 5.0 | 0.01 | 0.05 | 0.05 | 74 | 1009.1 |
| 20260901183546 | 54 | 235 | 0.0 | 3.0 | 0.01 | 0.05 | 0.05 | 74 | 1009.1 |
| 20260901183047 | 54 | 0 | 0.0 | 2.0 | 0.00 | 0.04 | 0.04 | 74 | 1009.6 |
| 20260901182546 | 54 | 0 | 0.0 | 2.0 | 0.00 | 0.04 | 0.04 | 74 | 1009.1 |
| 20260901182046 | 54 | 235 | 0.0 | 2.0 | 0.00 | 0.04 | 0.04 | 75 | 1009.6 |
| 20260901181547 | 54 | 238 | 0.0 | 4.0 | 0.00 | 0.04 | 0.04 | 74 | 1009.5 |
| 20260901181046 | 54 | 0 | 0.0 | 4.0 | 0.00 | 0.04 | 0.04 | 75 | 1011.2 |
| 20260901180546 | 54 | 238 | 0.0 | 4.0 | 0.00 | 0.04 | 0.04 | 75 | 1008.9 |
| 20260901180046 | 54 | 250 | 0.0 | 3.0 | 0.01 | 0.04 | 0.04 | 74 | 1009.4 |
| 20260901175546 | 54 | 243 | 0.0 | 3.0 | 0.01 | 0.04 | 0.04 | 75 | 1008.9 |
| 20260901175046 | 54 | 0 | 0.0 | 2.0 | 0.01 | 0.04 | 0.04 | 75 | 1009.4 |
| 20260901174546 | 54 | 226 | 0.0 | 2.0 | 0.01 | 0.04 | 0.04 | 75 | 1009.4 |
| 20260901174137 | 53 | 187 | 0.0 | 4.0 | 0.01 | 0.04 | 0.04 | 75 | 1009.6 |
| 20260901174046 | 53 | 187 | 0.0 | 4.0 | 0.01 | 0.04 | 0.04 | 75 | 1009.6 |
| 20260901173546 | 53 | 163 | 0.0 | 4.0 | 0.01 | 0.04 | 0.04 | 76 | 1009.7 |
| 20260901173046 | 53 | 224 | 0.0 | 4.0 | 0.01 | 0.04 | 0.04 | 76 | 1008.7 |
| 20260901172546 | 53 | 169 | 0.0 | 2.0 | 0.01 | 0.04 | 0.04 | 76 | 1008.7 |
| 20260901172046 | 53 | 0 | 0.0 | 0.0 | 0.01 | 0.04 | 0.04 | 76 | 1009.5 |
| 20260901171546 | 53 | 0 | 0.0 | 7.0 | 0.01 | 0.04 | 0.04 | 75 | 1009.2 |
| 20260901171046 | 53 | 172 | 0.0 | 7.0 | 0.01 | 0.04 | 0.04 | 76 | 1009.4 |
| 20260901170546 | 53 | 219 | 0.0 | 7.0 | 0.01 | 0.04 | 0.04 | 76 | 1008.6 |
| 20260901170046 | 53 | 231 | 0.0 | 3.0 | 0.00 | 0.03 | 0.04 | 76 | 1008.6 |
| 20260901165546 | 53 | 0 | 0.0 | 1.0 | 0.00 | 0.03 | 0.03 | 77 | 1008.6 |
| 20260901165046 | 53 | 257 | 0.0 | 1.0 | 0.00 | 0.03 | 0.03 | 77 | 1009.2 |
| 20260901164546 | 53 | 0 | 0.0 | 0.0 | 0.00 | 0.03 | 0.03 | 76 | 1008.6 |
| 20260901164046 | 53 | 0 | 0.0 | 0.0 | 0.00 | 0.03 | 0.03 | 77 | 1008.6 |
| 20260901163546 | 53 | 0 | 0.0 | 0.0 | 0.00 | 0.03 | 0.03 | 77 | 1008.6 |
| 20260901163046 | 53 | 0 | 0.0 | 0.0 | 0.00 | 0.03 | 0.03 | 77 | 1008.6 |
| 20260901162546 | 52 | 0 | 0.0 | 0.0 | 0.00 | 0.03 | 0.03 | 76 | 1009.1 |
| 20260901162046 | 52 | 0 | 0.0 | 0.0 | 0.00 | 0.03 | 0.03 | 77 | 1008.7 |
| 20260901161546 | 52 | 0 | 0.0 | 1.0 | 0.00 | 0.03 | 0.03 | 76 | 1008.7 |
| 20260901161046 | 52 | 0 | 0.0 | 1.0 | 0.00 | 0.03 | 0.03 | 76 | 1008.7 |
| 20260901160546 | 52 | 257 | 0.0 | 1.0 | 0.00 | 0.03 | 0.03 | 76 | 1009.1 |
| 20260901160046 | 52 | 0 | 0.0 | 0.0 | 0.00 | 0.03 | 0.03 | 76 | 1008.6 |
| 20260901155546 | 52 | 0 | 0.0 | 1.0 | 0.00 | 0.03 | 0.03 | 76 | 1008.6 |
| 20260901155046 | 52 | 0 | 0.0 | 1.0 | 0.00 | 0.03 | 0.03 | 76 | 1009.3 |
| 20260901154546 | 52 | 211 | 0.0 | 1.0 | 0.00 | 0.03 | 0.03 | 76 | 1008.6 |
| 20260901154046 | 52 | 0 | 0.0 | 0.0 | 0.00 | 0.03 | 0.03 | 76 | 1009.3 |
| 20260901153546 | 51 | 0 | 0.0 | 0.0 | 0.00 | 0.03 | 0.03 | 76 | 1009.3 |
| 20260901153046 | 51 | 0 | 0.0 | 0.0 | 0.00 | 0.03 | 0.03 | 76 | 1008.6 |
| 20260901152546 | 51 | 0 | 0.0 | 0.0 | 0.00 | 0.03 | 0.03 | 76 | 1009.1 |
| 20260901152046 | 51 | 0 | 0.0 | 0.0 | 0.00 | 0.03 | 0.03 | 77 | 1008.7 |
| 20260901151546 | 51 | 0 | 0.0 | 0.0 | 0.00 | 0.03 | 0.03 | 75 | 1008.7 |
| 20260901151047 | 51 | 0 | 0.0 | 0.0 | 0.00 | 0.03 | 0.03 | 76 | 1008.6 |
| 20260901150546 | 51 | 0 | 0.0 | 0.0 | 0.00 | 0.03 | 0.03 | 77 | 1008.6 |
| 20260901150046 | 51 | 0 | 0.0 | 0.0 | 0.00 | 0.03 | 0.03 | 77 | 1008.6 |
| 20260901145546 | 51 | 0 | 0.0 | 0.0 | 0.00 | 0.03 | 0.03 | 76 | 1008.6 |
| 20260901145046 | 51 | 0 | 0.0 | 0.0 | 0.00 | 0.03 | 0.03 | 77 | 1008.6 |
| 20260901144546 | 51 | 0 | 0.0 | 0.0 | 0.00 | 0.03 | 0.03 | 76 | 1008.9 |
| 20260901144046 | 51 | 0 | 0.0 | 0.0 | 0.00 | 0.03 | 0.03 | 76 | 1008.9 |
| 20260901143546 | 50 | 0 | 0.0 | 0.0 | 0.00 | 0.03 | 0.03 | 77 | 1008.5 |
| 20260901143046 | 51 | 0 | 0.0 | 0.0 | 0.00 | 0.03 | 0.03 | 73 | 1008.5 |
| 20260901142546 | 50 | 0 | 0.0 | 0.0 | 0.00 | 0.03 | 0.03 | 72 | 1009.8 |
| 20260901142046 | 50 | 0 | 0.0 | 0.0 | 0.01 | 0.03 | 0.03 | 77 | 1008.4 |
| 20260901141546 | 51 | 0 | 0.0 | 0.0 | 0.01 | 0.03 | 0.03 | 77 | 1008.9 |
| 20260901141046 | 51 | 0 | 0.0 | 0.0 | 0.01 | 0.03 | 0.03 | 77 | 1008.2 |
| 20260901140546 | 50 | 0 | 0.0 | 0.0 | 0.01 | 0.03 | 0.03 | 76 | 1008.7 |
| 20260901140046 | 51 | 0 | 0.0 | 0.0 | 0.01 | 0.03 | 0.03 | 77 | 1008.7 |
| 20260901135546 | 51 | 0 | 0.0 | 0.0 | 0.01 | 0.03 | 0.03 | 77 | 1008.3 |
| 20260901135046 | 51 | 0 | 0.0 | 0.0 | 0.01 | 0.03 | 0.03 | 77 | 1008.9 |
| 20260901134546 | 51 | 0 | 0.0 | 0.0 | 0.01 | 0.03 | 0.03 | 78 | 1008.3 |
| 20260901134046 | 51 | 0 | 0.0 | 0.0 | 0.01 | 0.03 | 0.03 | 78 | 1008.8 |
| 20260901133546 | 51 | 0 | 0.0 | 0.0 | 0.01 | 0.03 | 0.03 | 78 | 1008.7 |
| 20260901133046 | 51 | 0 | 0.0 | 0.0 | 0.01 | 0.03 | 0.03 | 77 | 1008.2 |
| 20260901132546 | 50 | 0 | 0.0 | 0.0 | 0.01 | 0.03 | 0.03 | 78 | 1008.6 |
| 20260901132046 | 50 | 0 | 0.0 | 0.0 | 0.01 | 0.02 | 0.03 | 77 | 1009.3 |
| 20260901131546 | 50 | 0 | 0.0 | 0.0 | 0.01 | 0.02 | 0.02 | 77 | 1008.0 |
| 20260901131046 | 51 | 0 | 0.0 | 0.0 | 0.01 | 0.02 | 0.02 | 77 | 1008.0 |
| 20260901130546 | 51 | 0 | 0.0 | 0.0 | 0.01 | 0.02 | 0.02 | 77 | 1008.0 |
| 20260901130046 | 51 | 0 | 0.0 | 0.0 | 0.01 | 0.02 | 0.02 | 77 | 1008.0 |
| 20260901125546 | 51 | 0 | 0.0 | 0.0 | 0.01 | 0.02 | 0.02 | 77 | 1008.0 |
| 20260901125046 | 51 | 0 | 0.0 | 2.0 | 0.01 | 0.02 | 0.02 | 78 | 1008.0 |
| 20260901124546 | 51 | 0 | 0.0 | 2.0 | 0.01 | 0.02 | 0.02 | 78 | 1008.2 |
| 20260901124046 | 50 | 275 | 0.0 | 2.0 | 0.01 | 0.02 | 0.02 | 78 | 1008.0 |
| 20260901123546 | 51 | 278 | 0.0 | 2.0 | 0.01 | 0.02 | 0.02 | 78 | 1008.0 |
| 20260901123046 | 50 | 259 | 0.0 | 3.0 | 0.02 | 0.02 | 0.02 | 78 | 1008.2 |
| 20260901122546 | 50 | 0 | 0.0 | 3.0 | 0.02 | 0.02 | 0.02 | 78 | 1008.2 |
| 20260901122046 | 50 | 278 | 0.0 | 3.0 | 0.01 | 0.02 | 0.02 | 78 | 1008.0 |
| 20260901121546 | 51 | 280 | 0.0 | 8.0 | 0.01 | 0.02 | 0.02 | 78 | 1008.7 |
| 20260901121046 | 50 | 273 | 0.0 | 8.0 | 0.01 | 0.01 | 0.01 | 78 | 1008.0 |
| 20260901120546 | 50 | 253 | 2.0 | 8.0 | 0.01 | 0.01 | 0.01 | 77 | 1008.0 |
| 20260901120046 | 50 | 256 | 2.0 | 6.0 | 0.01 | 0.01 | 0.01 | 77 | 1008.0 |
| 20260901115546 | 50 | 245 | 2.0 | 6.0 | 0.01 | 0.01 | 0.01 | 77 | 1007.9 |
| 20260901115046 | 50 | 253 | 2.0 | 6.0 | 0.01 | 0.01 | 0.01 | 78 | 1008.0 |
| 20260901114546 | 51 | 263 | 1.0 | 5.0 | 0.01 | 0.01 | 0.01 | 78 | 1008.0 |
| 20260901114046 | 50 | 267 | 0.0 | 5.0 | 0.01 | 0.01 | 0.01 | 78 | 1008.0 |
| 20260901113546 | 50 | 273 | 1.0 | 5.0 | 0.01 | 0.01 | 0.01 | 77 | 1008.2 |
| 20260901113046 | 50 | 247 | 2.0 | 8.0 | 0.00 | 0.01 | 0.01 | 77 | 1008.8 |
| 20260901112546 | 50 | 257 | 0.0 | 8.0 | 0.00 | 0.00 | 0.00 | 77 | 1008.2 |
| 20260901112046 | 51 | 277 | 0.0 | 8.0 | 0.00 | 0.00 | 0.00 | 77 | 1008.2 |
| 20260901111546 | 50 | 285 | 1.0 | 4.0 | 0.00 | 0.00 | 0.00 | 78 | 1008.2 |
| 20260901111045 | 50 | 333 | 0.0 | 1.0 | 0.00 | 0.00 | 0.00 | 78 | 1008.5 |
| 20260901110545 | 50 | 0 | 0.0 | 6.0 | 0.00 | 0.00 | 0.00 | 77 | 1007.9 |
| 20260901110045 | 50 | 284 | 0.0 | 6.0 | 0.00 | 0.00 | 0.00 | 77 | 1008.6 |
| 20260901105545 | 50 | 268 | 1.0 | 6.0 | 0.00 | 0.00 | 0.00 | 77 | 1008.0 |
| 20260901105045 | 50 | 267 | 0.0 | 5.0 | 0.00 | 0.00 | 0.00 | 77 | 1008.0 |
| 20260901104545 | 50 | 249 | 0.0 | 5.0 | 0.00 | 0.00 | 0.00 | 77 | 1008.5 |
| 20260901104045 | 50 | 261 | 0.0 | 4.0 | 0.00 | 0.00 | 0.00 | 76 | 1008.0 |
| 20260901103545 | 50 | 263 | 1.0 | 7.0 | 0.00 | 0.00 | 0.00 | 77 | 1008.2 |
| 20260901103045 | 50 | 270 | 1.0 | 7.0 | 0.00 | 0.00 | 0.00 | 77 | 1009.4 |
| 20260901102545 | 50 | 266 | 2.0 | 7.0 | 0.00 | 0.00 | 0.00 | 77 | 1008.0 |
| 20260901102045 | 50 | 292 | 1.0 | 6.0 | 0.00 | 0.00 | 0.00 | 77 | 1008.0 |
| 20260901101545 | 50 | 270 | 0.0 | 6.0 | 0.00 | 0.00 | 0.00 | 77 | 1008.0 |
| 20260901101045 | 50 | 280 | 0.0 | 6.0 | 0.00 | 0.00 | 0.00 | 77 | 1008.6 |
| 20260901100545 | 50 | 266 | 2.0 | 4.0 | 0.00 | 0.00 | 0.00 | 77 | 1008.0 |
| 20260901100045 | 50 | 267 | 2.0 | 9.0 | 0.00 | 0.00 | 0.00 | 77 | 1008.0 |
| 20260901095545 | 50 | 267 | 2.0 | 9.0 | 0.00 | 0.00 | 0.00 | 77 | 1007.9 |
| 20260901094546 | 50 | 270 | 4.0 | 9.0 | 0.00 | 0.00 | 0.00 | 77 | 1007.9 |
| 20260901094045 | 50 | 259 | 4.0 | 9.0 | 0.00 | 0.00 | 0.00 | 77 | 1007.9 |
| 20260901093545 | 50 | 275 | 5.0 | 9.0 | 0.00 | 0.00 | 0.00 | 77 | 1007.9 |
| 20260901093045 | 50 | 266 | 6.0 | 9.0 | 0.00 | 0.00 | 0.00 | 77 | 1008.6 |
| 20260901092545 | 50 | 268 | 1.0 | 8.0 | 0.00 | 0.00 | 0.00 | 77 | 1008.0 |
| 20260901092045 | 50 | 271 | 3.0 | 8.0 | 0.00 | 0.00 | 0.00 | 77 | 1008.0 |
| 20260901091545 | 50 | 271 | 5.0 | 10.0 | 0.00 | 0.00 | 0.00 | 78 | 1008.0 |
| 20260901091045 | 50 | 261 | 5.0 | 10.0 | 0.00 | 0.00 | 0.00 | 77 | 1007.9 |
| 20260901090545 | 50 | 277 | 4.0 | 10.0 | 0.00 | 0.00 | 0.00 | 77 | 1007.9 |
| 20260901090045 | 50 | 284 | 6.0 | 10.0 | 0.00 | 0.00 | 0.00 | 77 | 1008.6 |
| 20260901085545 | 50 | 280 | 6.0 | 10.0 | 0.00 | 0.00 | 0.00 | 77 | 1007.9 |
| 20260901085048 | 50 | 277 | 6.0 | 10.0 | 0.00 | 0.00 | 0.00 | 76 | 1008.6 |
| 20260901084545 | 50 | 275 | 5.0 | 9.0 | 0.00 | 0.00 | 0.00 | 76 | 1008.0 |
| 20260901084045 | 50 | 277 | 5.0 | 9.0 | 0.00 | 0.00 | 0.00 | 77 | 1008.6 |
| 20260901083545 | 50 | 274 | 5.0 | 9.0 | 0.00 | 0.00 | 0.00 | 76 | 1008.5 |
| 20260901083045 | 50 | 274 | 4.0 | 9.0 | 0.00 | 0.00 | 0.00 | 76 | 1008.2 |
| 20260901082545 | 50 | 268 | 6.0 | 9.0 | 0.00 | 0.00 | 0.00 | 76 | 1008.2 |
| 20260901082045 | 50 | 277 | 6.0 | 8.0 | 0.00 | 0.00 | 0.00 | 76 | 1008.2 |
| 20260901081545 | 50 | 263 | 5.0 | 8.0 | 0.00 | 0.00 | 0.00 | 75 | 1008.2 |
| 20260901081045 | 50 | 278 | 3.0 | 8.0 | 0.00 | 0.00 | 0.00 | 74 | 1008.7 |
| 20260901080545 | 50 | 292 | 6.0 | 8.0 | 0.00 | 0.00 | 0.00 | 73 | 1008.6 |
| 20260901080045 | 50 | 274 | 4.0 | 9.0 | 0.00 | 0.00 | 0.00 | 71 | 1008.2 |
| 20260901075545 | 50 | 280 | 6.0 | 9.0 | 0.00 | 0.00 | 0.00 | 72 | 1008.6 |
| 20260901075045 | 51 | 281 | 5.0 | 9.0 | 0.00 | 0.00 | 0.00 | 72 | 1008.4 |
| 20260901074545 | 51 | 270 | 5.0 | 7.0 | 0.00 | 0.00 | 0.00 | 71 | 1008.4 |
| 20260901074045 | 51 | 267 | 6.0 | 7.0 | 0.00 | 0.00 | 0.00 | 72 | 1007.9 |
| 20260901073545 | 51 | 280 | 4.0 | 7.0 | 0.00 | 0.00 | 0.00 | 73 | 1008.0 |
| 20260901073045 | 51 | 264 | 2.0 | 6.0 | 0.00 | 0.00 | 0.00 | 72 | 1008.6 |
| 20260901072545 | 51 | 291 | 3.0 | 5.0 | 0.00 | 0.00 | 0.00 | 71 | 1008.0 |
| 20260901072045 | 51 | 281 | 2.0 | 4.0 | 0.00 | 0.00 | 0.00 | 72 | 1008.0 |
| 20260901071545 | 51 | 312 | 2.0 | 3.0 | 0.00 | 0.00 | 0.00 | 71 | 1007.9 |
| 20260901071045 | 51 | 306 | 1.0 | 3.0 | 0.00 | 0.00 | 0.00 | 71 | 1007.9 |
| 20260901070545 | 52 | 324 | 1.0 | 3.0 | 0.00 | 0.00 | 0.00 | 71 | 1007.9 |
| 20260901070045 | 52 | 316 | 1.0 | 4.0 | 0.00 | 0.00 | 0.00 | 70 | 1008.4 |
| 20260901065545 | 52 | 323 | 1.0 | 4.0 | 0.00 | 0.00 | 0.00 | 70 | 1007.9 |
| 20260901065045 | 52 | 343 | 2.0 | 4.0 | 0.00 | 0.00 | 0.00 | 69 | 1008.5 |
| 20260901064545 | 52 | 334 | 2.0 | 3.0 | 0.00 | 0.00 | 0.00 | 70 | 1007.9 |
| 20260901064045 | 52 | 323 | 2.0 | 3.0 | 0.00 | 0.00 | 0.00 | 69 | 1007.9 |
| 20260901063545 | 52 | 322 | 2.0 | 3.0 | 0.00 | 0.00 | 0.00 | 69 | 1007.8 |
| 20260901063136 | 52 | 324 | 1.0 | 3.0 | 0.00 | 0.00 | 0.00 | 69 | 1008.5 |
| 20260901063045 | 52 | 324 | 1.0 | 3.0 | 0.00 | 0.00 | 0.00 | 69 | 1008.5 |
| 20260901062545 | 52 | 301 | 2.0 | 3.0 | 0.00 | 0.00 | 0.00 | 68 | 1008.0 |
| 20260901062045 | 52 | 310 | 2.0 | 3.0 | 0.00 | 0.00 | 0.00 | 68 | 1007.9 |
| 20260901061545 | 52 | 322 | 2.0 | 3.0 | 0.00 | 0.00 | 0.00 | 68 | 1008.0 |
| 20260901061045 | 52 | 312 | 1.0 | 3.0 | 0.00 | 0.00 | 0.00 | 67 | 1008.0 |
| 20260901060545 | 52 | 317 | 2.0 | 3.0 | 0.00 | 0.00 | 0.00 | 67 | 1007.9 |
| 20260901060045 | 52 | 313 | 2.0 | 3.0 | 0.00 | 0.00 | 0.00 | 67 | 1008.4 |
| 20260901055545 | 52 | 308 | 2.0 | 3.0 | 0.00 | 0.00 | 0.00 | 67 | 1008.0 |
| 20260901055045 | 52 | 310 | 2.0 | 3.0 | 0.00 | 0.00 | 0.00 | 66 | 1008.8 |
| 20260901054545 | 52 | 302 | 2.0 | 3.0 | 0.00 | 0.00 | 0.00 | 66 | 1008.0 |
| 20260901054045 | 52 | 319 | 2.0 | 3.0 | 0.00 | 0.00 | 0.00 | 67 | 1007.9 |
| 20260901053545 | 52 | 308 | 2.0 | 2.0 | 0.00 | 0.00 | 0.00 | 66 | 1007.9 |
| 20260901053045 | 52 | 310 | 2.0 | 3.0 | 0.00 | 0.00 | 0.00 | 66 | 1008.7 |
| 20260901052545 | 52 | 316 | 2.0 | 3.0 | 0.00 | 0.00 | 0.00 | 67 | 1007.9 |
| 20260901052045 | 52 | 306 | 1.0 | 3.0 | 0.00 | 0.00 | 0.00 | 67 | 1008.5 |
| 20260901051545 | 52 | 305 | 2.0 | 3.0 | 0.00 | 0.00 | 0.00 | 67 | 1008.0 |
| 20260901051045 | 53 | 334 | 2.0 | 3.0 | 0.00 | 0.00 | 0.00 | 68 | 1007.9 |
| 20260901050545 | 53 | 323 | 1.0 | 3.0 | 0.00 | 0.00 | 0.00 | 68 | 1007.9 |
| 20260901050045 | 53 | 333 | 1.0 | 3.0 | 0.00 | 0.00 | 0.00 | 68 | 1007.9 |
| 20260901045545 | 53 | 296 | 1.0 | 3.0 | 0.00 | 0.00 | 0.00 | 68 | 1008.0 |
| 20260901045045 | 53 | 334 | 2.0 | 3.0 | 0.00 | 0.00 | 0.00 | 67 | 1008.7 |
| 20260901044545 | 53 | 348 | 1.0 | 3.0 | 0.00 | 0.00 | 0.00 | 68 | 1008.2 |
| 20260901044045 | 53 | 296 | 2.0 | 2.0 | 0.00 | 0.00 | 0.00 | 68 | 1008.2 |
| 20260901043545 | 53 | 305 | 1.0 | 3.0 | 0.00 | 0.00 | 0.00 | 68 | 1008.2 |
| 20260901043045 | 53 | 310 | 1.0 | 3.0 | 0.00 | 0.00 | 0.00 | 68 | 1008.9 |
| 20260901042545 | 53 | 306 | 1.0 | 3.0 | 0.00 | 0.00 | 0.00 | 69 | 1008.2 |
| 20260901042045 | 53 | 322 | 1.0 | 4.0 | 0.00 | 0.00 | 0.00 | 68 | 1008.7 |
| 20260901041545 | 53 | 310 | 1.0 | 4.0 | 0.00 | 0.00 | 0.00 | 68 | 1008.2 |
| 20260901041045 | 53 | 305 | 2.0 | 4.0 | 0.00 | 0.00 | 0.00 | 66 | 1008.2 |
| 20260901040545 | 53 | 299 | 2.0 | 4.0 | 0.00 | 0.00 | 0.00 | 67 | 1008.2 |
| 20260901040046 | 53 | 284 | 2.0 | 4.0 | 0.00 | 0.00 | 0.00 | 66 | 1009.3 |
| 20260901035637 | 53 | 261 | 2.0 | 4.0 | 0.00 | 0.00 | 0.00 | 66 | 1008.3 |
| 20260901035545 | 53 | 261 | 2.0 | 4.0 | 0.00 | 0.00 | 0.00 | 66 | 1008.3 |
| 20260901035045 | 54 | 320 | 2.0 | 4.0 | 0.00 | 0.00 | 0.00 | 66 | 1008.5 |
| 20260901034545 | 54 | 317 | 2.0 | 6.0 | 0.00 | 0.00 | 0.00 | 65 | 1008.3 |
| 20260901034045 | 54 | 256 | 1.0 | 6.0 | 0.00 | 0.00 | 0.00 | 64 | 1008.3 |
| 20260901033545 | 54 | 271 | 4.0 | 6.0 | 0.00 | 0.00 | 0.00 | 64 | 1007.7 |
| 20260901033045 | 54 | 280 | 2.0 | 7.0 | 0.00 | 0.00 | 0.00 | 64 | 1008.4 |
| 20260901032545 | 55 | 271 | 5.0 | 7.0 | 0.00 | 0.00 | 0.00 | 63 | 1007.6 |
| 20260901032045 | 55 | 266 | 4.0 | 7.0 | 0.00 | 0.00 | 0.00 | 62 | 1009.2 |
| 20260901031545 | 55 | 284 | 3.0 | 7.0 | 0.00 | 0.00 | 0.00 | 62 | 1007.5 |
| 20260901031045 | 56 | 281 | 3.0 | 7.0 | 0.00 | 0.00 | 0.00 | 60 | 1008.8 |
| 20260901030545 | 56 | 282 | 0.0 | 4.0 | 0.00 | 0.00 | 0.00 | 59 | 1007.4 |
| 20260901030045 | 56 | 303 | 2.0 | 3.0 | 0.00 | 0.00 | 0.00 | 59 | 1008.0 |
| 20260901025545 | 57 | 289 | 1.0 | 3.0 | 0.00 | 0.00 | 0.00 | 57 | 1007.7 |
| 20260901025045 | 57 | 327 | 0.0 | 2.0 | 0.00 | 0.00 | 0.00 | 55 | 1007.4 |
| 20260901024545 | 57 | 327 | 1.0 | 2.0 | 0.00 | 0.00 | 0.00 | 57 | 1007.3 |
| 20260901024044 | 57 | 338 | 1.0 | 2.0 | 0.00 | 0.00 | 0.00 | 57 | 1007.9 |
| 20260901023545 | 58 | 0 | 0.0 | 0.0 | 0.00 | 0.00 | 0.00 | 56 | 1007.6 |
| 20260901023045 | 58 | 0 | 0.0 | 0.0 | 0.00 | 0.00 | 0.00 | 56 | 1007.8 |
| 20260901022544 | 58 | 0 | 0.0 | 0.0 | 0.00 | 0.00 | 0.00 | 56 | 1007.8 |
| 20260901022044 | 57 | 0 | 0.0 | 0.0 | 0.00 | 0.00 | 0.00 | 55 | 1008.6 |
| 20260901021544 | 58 | 0 | 0.0 | 0.0 | 0.00 | 0.00 | 0.00 | 57 | 1008.0 |
| 20260901021044 | 58 | 0 | 0.0 | 0.0 | 0.00 | 0.00 | 0.00 | 58 | 1007.9 |
| 20260901020545 | 58 | 0 | 0.0 | 0.0 | 0.00 | 0.00 | 0.00 | 56 | 1007.5 |
| 20260901020044 | 58 | 0 | 0.0 | 0.0 | 0.00 | 0.00 | 0.00 | 56 | 1007.9 |
| 20260901015544 | 59 | 0 | 0.0 | 0.0 | 0.00 | 0.00 | 0.00 | 57 | 1008.2 |
| 20260901015044 | 59 | 309 | 0.0 | 0.0 | 0.00 | 0.00 | 0.00 | 54 | 1007.5 |
| 20260901014544 | 59 | 330 | 0.0 | 0.0 | 0.00 | 0.00 | 0.00 | 53 | 1008.5 |
| 20260901014044 | 59 | 0 | 0.0 | 0.0 | 0.00 | 0.00 | 0.00 | 53 | 1008.4 |
| 20260901013544 | 59 | 0 | 0.0 | 0.0 | 0.00 | 0.00 | 0.00 | 52 | 1008.8 |
| 20260901013044 | 60 | 0 | 0.0 | 0.0 | 0.00 | 0.00 | 0.00 | 53 | 1008.3 |
| 20260901012544 | 60 | 0 | 0.0 | 0.0 | 0.00 | 0.00 | 0.00 | 54 | 1007.7 |
| 20260901012044 | 60 | 0 | 0.0 | 4.0 | 0.00 | 0.00 | 0.00 | 53 | 1007.8 |
| 20260901011544 | 61 | 0 | 0.0 | 4.0 | 0.00 | 0.00 | 0.00 | 53 | 1008.0 |
| 20260901011044 | 62 | 274 | 0.0 | 4.0 | 0.00 | 0.00 | 0.00 | 53 | 1007.8 |
| 20260901010545 | 62 | 0 | 1.0 | 3.0 | 0.00 | 0.00 | 0.00 | 51 | 1007.7 |
| 20260901010045 | 62 | 277 | 0.0 | 3.0 | 0.00 | 0.00 | 0.00 | 52 | 1007.9 |
| 20260901005544 | 63 | 280 | 0.0 | 2.0 | 0.00 | 0.00 | 0.00 | 51 | 1008.0 |
| 20260901005044 | 63 | 280 | 0.0 | 1.0 | 0.00 | 0.00 | 0.00 | 50 | 1007.9 |
| 20260901004636 | 63 | 0 | 0.0 | 0.0 | 0.00 | 0.00 | 0.00 | 50 | 1007.9 |
| 20260901004544 | 63 | 0 | 0.0 | 0.0 | 0.00 | 0.00 | 0.00 | 50 | 1007.9 |
| 20260901004044 | 64 | 270 | 0.0 | 4.0 | 0.00 | 0.00 | 0.00 | 49 | 1007.9 |
| 20260901003544 | 64 | 267 | 1.0 | 4.0 | 0.00 | 0.00 | 0.00 | 49 | 1007.9 |
| 20260901003044 | 64 | 275 | 2.0 | 4.0 | 0.00 | 0.00 | 0.00 | 47 | 1008.5 |
| 20260901002544 | 64 | 268 | 1.0 | 3.0 | 0.00 | 0.00 | 0.00 | 47 | 1007.9 |
| 20260901002046 | 64 | 273 | 1.0 | 4.0 | 0.00 | 0.00 | 0.00 | 48 | 1007.9 |
| 20260901001544 | 64 | 259 | 2.0 | 4.0 | 0.00 | 0.00 | 0.00 | 48 | 1007.9 |
| 20260901001044 | 64 | 270 | 1.0 | 4.0 | 0.00 | 0.00 | 0.00 | 46 | 1007.9 |
| 20260901000545 | 65 | 273 | 3.0 | 4.0 | 0.00 | 0.00 | 0.00 | 46 | 1008.0 |
| 20260901000045 | 65 | 274 | 1.0 | 7.0 | 0.00 | 0.00 | 0.00 | 46 | 1009.4 |
| 20260831235544 | 65 | 243 | 2.0 | 7.0 | 0.00 | 0.00 | 0.00 | 45 | 1008.6 |
| 20260831235045 | 65 | 260 | 3.0 | 7.0 | 0.00 | 0.00 | 0.00 | 45 | 1008.0 |
| 20260831234544 | 66 | 259 | 2.0 | 4.0 | 0.00 | 0.00 | 0.00 | 45 | 1008.0 |
| 20260831234044 | 66 | 266 | 0.0 | 4.0 | 0.00 | 0.00 | 0.00 | 47 | 1008.0 |
| 20260831233544 | 66 | 254 | 0.0 | 3.0 | 0.00 | 0.00 | 0.00 | 47 | 1008.0 |
| 20260831233044 | 66 | 229 | 0.0 | 2.0 | 0.00 | 0.00 | 0.00 | 47 | 1008.9 |
| 20260831232544 | 66 | 242 | 0.0 | 2.0 | 0.00 | 0.00 | 0.00 | 47 | 1008.4 |
| 20260831232045 | 66 | 278 | 0.0 | 4.0 | 0.00 | 0.00 | 0.00 | 44 | 1008.2 |
| 20260831231544 | 66 | 0 | 0.0 | 4.0 | 0.00 | 0.00 | 0.00 | 47 | 1008.2 |
| 20260831231044 | 66 | 273 | 0.0 | 4.0 | 0.00 | 0.00 | 0.00 | 44 | 1008.3 |
| 20260831230544 | 66 | 240 | 0.0 | 3.0 | 0.00 | 0.00 | 0.00 | 47 | 1008.3 |
| 20260831230044 | 66 | 284 | 0.0 | 3.0 | 0.00 | 0.00 | 0.00 | 47 | 1009.5 |
| 20260831225544 | 66 | 215 | 0.0 | 2.0 | 0.00 | 0.00 | 0.00 | 44 | 1008.8 |
| 20260831225044 | 66 | 245 | 0.0 | 2.0 | 0.00 | 0.00 | 0.00 | 48 | 1008.6 |
| 20260831224544 | 66 | 0 | 0.0 | 2.0 | 0.00 | 0.00 | 0.00 | 49 | 1008.3 |
| 20260831224044 | 66 | 245 | 0.0 | 2.0 | 0.00 | 0.00 | 0.00 | 48 | 1008.9 |
| 20260831223544 | 66 | 0 | 0.0 | 0.0 | 0.00 | 0.00 | 0.00 | 50 | 1008.3 |
| 20260831223044 | 66 | 0 | 0.0 | 0.0 | 0.00 | 0.00 | 0.00 | 50 | 1009.3 |
| 20260831222544 | 66 | 0 | 0.0 | 0.0 | 0.00 | 0.00 | 0.00 | 50 | 1008.6 |
| 20260831222044 | 66 | 0 | 0.0 | 0.0 | 0.00 | 0.00 | 0.00 | 50 | 1008.8 |
| 20260831221544 | 66 | 0 | 0.0 | 0.0 | 0.00 | 0.00 | 0.00 | 51 | 1008.9 |
| 20260831221044 | 66 | 0 | 0.0 | 0.0 | 0.00 | 0.00 | 0.00 | 51 | 1008.6 |
| 20260831220544 | 66 | 0 | 0.0 | 0.0 | 0.00 | 0.00 | 0.00 | 50 | 1008.7 |
| 20260831220044 | 66 | 0 | 0.0 | 0.0 | 0.00 | 0.00 | 0.00 | 50 | 1008.6 |
| 20260831215544 | 66 | 0 | 0.0 | 0.0 | 0.00 | 0.00 | 0.00 | 51 | 1008.9 |
| 20260831215044 | 65 | 0 | 0.0 | 0.0 | 0.00 | 0.00 | 0.00 | 51 | 1008.8 |
| 20260831214544 | 65 | 0 | 0.0 | 0.0 | 0.00 | 0.00 | 0.00 | 50 | 1008.4 |